Northbrook, IL

5:44 AM CST on February 28, 2017 (GMT -0600)
Chicago Executive

Weather History for KPWK - March, 2014

Change the Weather History Date:

Friday, March 28, 2014

  Actual Average Record
Temperature  
Mean Temperature 45 °F 41 °F  
Max Temperature 55 °F 51 °F 75 °F (2004)
Min Temperature 34 °F 32 °F 17 °F (2015)
Degree Days  
Heating Degree Days 20 24  
Month to date heating degree days 982 783  
Since 1 July heating degree days 6341 5521  
Cooling Degree Days 0 0  
Month to date cooling degree days 0 0  
Year to date cooling degree days 0 0  
Moisture  
Dew Point 34 °F    
Average Humidity 80    
Maximum Humidity 92    
Minimum Humidity 67    
Precipitation  
Precipitation 0.07 in 0.09 in 1.16 in (2004)
Month to date precipitation 0.55 2.00  
Year to date precipitation 2.68 4.58  
Sea Level Pressure  
Sea Level Pressure 29.85 in    
Wind  
Wind Speed 9 mph (NW)    
Max Wind Speed 28 mph    
Max Gust Speed 41 mph    
Visibility 9 miles    
Events Rain , Snow    
T = Trace of Precipitation, MM = Missing Value Source: NWS Daily Summary

Daily Weather History Graph

Daily Weather History Graph

Search for Another Location

Airport or City:

Trip Planner

Search our weather history database for the weather conditions in past years. The results will help you decide how hot, cold, wet, or windy it might be!

Date:

Astronomy

Mar. 28, 2014 Rise Set
Actual Time 6:41 AM CDT 7:12 PM CDT
Civil Twilight 6:13 AM CDT 7:40 PM CDT
Nautical Twilight 5:39 AM CDT 8:14 PM CDT
Astronomical Twilight 5:05 AM CDT 8:48 PM CDT
Moon 5:14 AM CDT 5:07 PM CDT
Length of Visible Light 13h 27m
Length of Day
12h 31m
Waning Crescent, 6% of the Moon is Illuminated
Mar 28
Waning Crescent
Mar 30
New
Apr 7
First Quarter
Apr 15
Full
Apr 22
Last Quarter

Hourly Weather History & Observations

Time (CDT) Temp. Windchill Dew Point Humidity Pressure Visibility Wind Dir Wind Speed Gust Speed Precip Events Conditions
12:52 AM 55.0 °F - 48.9 °F 80% 29.42 in 10.0 mi SSW 25.3 mph 33.4 mph 0.00 in   Overcast
1:47 AM 53.6 °F - 44.6 °F 72% 29.44 in 10.0 mi WSW 18.4 mph 33.4 mph 0.00 in   Mostly Cloudy
1:52 AM 51.1 °F - 43.0 °F 74% 29.46 in 10.0 mi SW 20.7 mph 33.4 mph 0.00 in   Overcast
2:11 AM 48.9 °F - 42.1 °F 77% 29.46 in 10.0 mi SW 25.3 mph 33.4 mph N/A   Overcast
2:33 AM 46.9 °F - 41.0 °F 80% 29.48 in 10.0 mi WSW 20.7 mph 29.9 mph N/A   Overcast
2:52 AM 46.0 °F 39.9 °F 41.0 °F 83% 29.49 in 9.0 mi SW 13.8 mph 29.9 mph N/A   Overcast
3:48 AM 44.6 °F 38.1 °F 41.0 °F 87% 29.51 in 5.0 mi WSW 13.8 mph 24.2 mph 0.01 in   Overcast
3:52 AM 44.1 °F 37.1 °F 41.0 °F 89% 29.52 in 5.0 mi WSW 15.0 mph 24.2 mph 0.01 in   Overcast
4:52 AM 44.1 °F 38.6 °F 41.0 °F 89% 29.56 in 7.0 mi WSW 10.4 mph - 0.00 in   Overcast
5:52 AM 41.0 °F 31.6 °F 37.9 °F 89% 29.64 in 9.0 mi NW 20.7 mph 31.1 mph 0.01 in Rain Light Rain
6:05 AM 39.9 °F 31.1 °F 36.0 °F 86% 29.65 in 9.0 mi NNW 17.3 mph 28.8 mph 0.01 in Rain Light Rain
6:13 AM 39.0 °F 29.0 °F 35.1 °F 86% 29.67 in 10.0 mi NNW 20.7 mph 26.5 mph 0.01 in Rain Light Rain
6:50 AM 37.4 °F 29.3 °F 33.8 °F 87% 29.74 in 10.0 mi NNW 12.7 mph - 0.03 in Rain Light Rain
6:52 AM 37.0 °F 28.9 °F 34.0 °F 89% 29.75 in 10.0 mi NNW 12.7 mph - 0.03 in Rain Light Rain
7:22 AM 35.1 °F 26.9 °F 33.1 °F 92% 29.79 in 4.0 mi NW 11.5 mph - 0.01 in Snow Light Snow
7:52 AM 36.0 °F 28.0 °F 33.1 °F 89% 29.84 in 10.0 mi NW 11.5 mph - 0.02 in   Overcast
8:52 AM 37.9 °F 30.5 °F 34.0 °F 86% 29.89 in 10.0 mi NNW 11.5 mph 20.7 mph N/A   Overcast
9:09 AM 37.9 °F 28.2 °F 33.1 °F 83% 29.90 in 10.0 mi NNW 18.4 mph - N/A   Overcast
9:17 AM 37.9 °F 28.9 °F 33.1 °F 83% 29.90 in 10.0 mi NNW 16.1 mph 23.0 mph N/A   Overcast
9:52 AM 37.9 °F 30.9 °F 32.0 °F 79% 29.94 in 10.0 mi North 10.4 mph - N/A   Overcast
10:52 AM 37.9 °F 29.6 °F 32.0 °F 79% 29.99 in 10.0 mi NNW 13.8 mph 20.7 mph N/A   Overcast
11:52 AM 39.0 °F 32.3 °F 32.0 °F 76% 30.01 in 10.0 mi NNW 10.4 mph - N/A   Overcast
12:52 PM 39.9 °F 36.7 °F 30.9 °F 70% 30.05 in 10.0 mi Variable 4.6 mph - N/A   Overcast
1:52 PM 39.9 °F - 30.9 °F 70% 30.08 in 10.0 mi Calm Calm - N/A   Overcast
2:52 PM 41.0 °F 38.0 °F 30.9 °F 67% 30.11 in 10.0 mi SSW 4.6 mph - N/A   Overcast
3:52 PM 37.9 °F 32.7 °F 30.0 °F 73% 30.14 in 10.0 mi ENE 6.9 mph - N/A   Overcast
4:52 PM 37.9 °F 32.7 °F 30.0 °F 73% 30.15 in 10.0 mi East 6.9 mph - N/A   Overcast
5:52 PM 37.0 °F 31.0 °F 28.9 °F 73% 30.15 in 10.0 mi ENE 8.1 mph - N/A   Overcast
6:52 PM 36.0 °F 29.6 °F 28.0 °F 73% 30.21 in 10.0 mi ESE 8.1 mph - N/A   Overcast
7:52 PM 35.1 °F 30.1 °F 28.0 °F 76% 30.20 in 10.0 mi NE 5.8 mph - N/A   Overcast
8:52 PM 35.1 °F 30.1 °F 28.0 °F 76% 30.18 in 10.0 mi ENE 5.8 mph - N/A   Overcast
9:52 PM 34.0 °F 27.2 °F 28.9 °F 82% 30.19 in 10.0 mi ENE 8.1 mph - N/A   Overcast
10:52 PM 34.0 °F 28.0 °F 28.0 °F 79% 30.21 in 10.0 mi East 6.9 mph - N/A   Overcast
11:52 PM 34.0 °F 29.8 °F 27.0 °F 75% 30.22 in 10.0 mi East 4.6 mph - N/A   Overcast